Nörvenich Air Base

Airport
ICAO code: 
ETNN
Summary
ICAO Region: 
EUR
Territory: 
Location: 
Nörvenich, North Rhine-Westphalia
Serving: 
Nörvenich
Elevation: 
384 ft
Coordinates: 
Aerial View: 
50° 49' 54.001" N, 6° 39' 29.999" E
Metar
Observation
ETNN 210420Z 26008KT 9999 BKN050 01/M01 Q1032 BLU
Station
Noervenich
Date/Time
2022-01-21 04:20:00
Wind direction
260°
Wind speed
08 kts
Lowest cloud amount
broken clouds
Temperature
1°C
Dew point
-1°C
Humidity
86%
QNH
1032 hPa
Weather condition
n/a

Nörvenich Air Base (Fliegerhorst Nörvenich) is a German Air Force air base in Germany.

Runways

Designator Length Width Surface Rops
7/25 2439 45 ASP No/No
Airport map: 
Aerial View: 

SKYbrary Partners:

Safety knowledge contributed by: